Flag for U.S.A. Weather past 2 weeks in Sunnyvale, California, U.S.A.

Now
54 °F

Overcast.


Feels Like: 53 °F
Forecast: 50 / 75 °F
Wind: 5 mph from North

Location: Moffett Field

Current Time: Apr 19, 2015 at 5:00:20 AM

Latest Report: Apr 19, 2015 at 3:56 AM


Visibility: 10 mi

Pressure: 29.97 "Hg

Humidity: 90%

Dew point: 51 °F

Location of SunnyvaleLocation

Historic Weather in Sunnyvale — Graph

°F

Sunnyvale temperature yesterday

Maximum temperature yesterday: 70 °F (at 1:56 PM)
Minimum temperature yesterday: 53 °F (at 12:56 AM)
Average temperature yesterday: 59 °F

Past Weeks' High & Low Weather Summary

 TemperatureHumidityPressure
High80 °F (Apr 16, 3:56 PM)94% (Apr 7, 8:01 AM)30.36 "Hg (Apr 7, 8:01 AM)
Low42 °F (Apr 6, 5:56 AM)17% (Apr 16, 3:56 PM)29.81 "Hg (Apr 7, 4:56 AM)
Average58 °F57%30.05 "Hg
* Reported Apr 4 3:56 AM — Apr 19 3:56 AM, Sunnyvale, Weather by CustomWeather, © 2015

Note: Actual official high and low records may vary slightly from our data, if they occured in-between our weather recording intervals... More about our weather records

Advertising

Sunnyvale weather history for previous 24 hours

 ConditionsComfort  
Time TempWeatherWind HumidityBarometerVisibility
3:56 AM
Sun, Apr 19
54 °FOvercast.5 mph90%29.97 "Hg10 mi
2:56 AM55 °FOvercast.6 mph87%29.97 "Hg10 mi
1:56 AM55 °FLow clouds.No wind83%29.97 "Hg10 mi
1:03 AM55 °FPassing clouds.3 mph82%29.96 "Hg10 mi
11:56 PM
Sat, Apr 18
55 °FClear.3 mph83%29.96 "Hg10 mi
10:56 PM55 °FPassing clouds.5 mph83%29.97 "Hg10 mi
9:56 PM56 °FClear.5 mph84%29.97 "Hg10 mi
8:56 PM57 °FClear.7 mph81%29.96 "Hg10 mi
7:56 PM59 °FSunny.6 mph75%29.94 "Hg10 mi
6:56 PM63 °FSunny.6 mph68%29.93 "Hg10 mi
5:56 PM65 °FSunny.9 mph63%29.94 "Hg10 mi
4:56 PM66 °FSunny.12 mph63%29.94 "Hg10 mi
3:56 PM68 °FSunny.14 mph61%29.96 "Hg10 mi
2:56 PM69 °FSunny.13 mph53%29.97 "Hg10 mi
1:56 PM70 °FSunny.9 mph47%29.99 "Hg10 mi
12:56 PM66 °FSunny.7 mph56%30.01 "Hg10 mi
11:56 AM64 °FSunny.5 mph63%30.04 "Hg10 mi
10:56 AM61 °FSunny.6 mph70%30.05 "Hg8 mi
9:56 AM59 °FSunny.3 mph72%30.06 "Hg7 mi
8:56 AM57 °FSunny.No wind78%30.06 "Hg6 mi
7:56 AM54 °FOvercast.No wind83%30.07 "Hg6 mi
6:56 AM53 °FPassing clouds.No wind83%30.06 "Hg6 mi
5:56 AM53 °FLow clouds.No wind86%30.05 "Hg8 mi
Weather by CustomWeather, © 2015

See weather overviewHow to use our weather pages